Volver al catálogo

FENGYUN 1C DEB

ActivoPO
NORAD 32441·DEBRIS·🇨🇳 China

Lanzado May 10, 1999 desde Taiyuan Satellite Launch Center

Loading…

Próximos Pases (próximas 24 horas)

TLE

ObsoletoSource: Space-Track

Época: Aug 22, 2026, 09:55 UTC

1 32441U 99025DBD 26234.41327041  .00001296  00000-0  56609-3 0  9995
2 32441  97.7756 290.5402 0245442 292.7970  64.7447 14.10516149981389

Sigue FENGYUN 1C DEB en tiempo real con AllMySat

Download on the App Store